Погода в Суоёки

Россия / Республика Карелия     62°12′00″N   32°36′45″E
темп.,
°C
ветер,
м/с
пор.,
м/с
влажн.,
%
обл.,
%
осадки,
мм/ч
давл.,
гПа
погр.,
м
15 апреля, чт
чт1500:00−1зсз26915 0.0 1025131
03:00−2сз14935 0.0 102779
06:00−5ссз11975 0.0 102927
09:00+2ссв23725 0.0 1030397
12:00+6св22525 0.0 10311082
15:00+7св12485 0.0 10311281
18:00+7всв11600 0.0 103147
21:00−1в11900 0.0 103210
16 апреля, пт
пт1600:00−2сз00950 0.0 103310
03:00−2с00950 0.0 103410
06:00−2ссв11940 0.0 103411
09:00+5всв12640 0.0 1034289
12:00+8всв23520 0.0 1034881
15:00+9всв33545 0.0 10341123
18:00+8всв35665 0.0 1034416
21:00+3св25913 0.0 103582
17 апреля, сб
сб1700:00+1всв27930 0.0 1036131
03:00−1всв11940 0.0 103630
06:00−1всв23910 0.0 103758
09:00+5всв24650 0.0 1036310
12:00+8всв23515 0.0 1036797
15:00+10всв22450 0.0 10351040
18:00+9всв23540 0.0 1034368
21:00+5в22700 0.0 103410
18 апреля, вс
вс1800:00+3в11725 0.0 103410
03:00+2св11745 0.0 103410
06:00+1св11795 0.0 103410
09:00+6всв12665 0.0 1034269
12:00+10в235474 0.0 10341042
15:00+11всв234996 0.0 10331418
18:00+10всв33565 0.0 10331258
21:00+5в24825 0.0 103460
19 апреля, пн
пн1900:00+4вюв23843 0.0 103452
03:00+2вюв23935 0.0 103547
06:00+2в2294100 0.0 103551
09:00+5вюв247729 0.0 1034306
12:00+9юв2361100 0.0 10341005
15:00+11юв225182 0.0 10331513
18:00+11юв225195 0.0 1032489
21:00+7юв3673100 0.0 1033223